User: anonymous   Login
Location: Kosice
(0.0000°N, 21.2500°E)
Time: 07:10:22
(UTC+02:00)
Language:

Cosmos 923 Rocket - Orbit

View from above orbital plane
View from above orbital plane
View from above satellite
View from above satellite

Ground track
Ground track

The orbit data is extracted from the following two-line orbital elements,

1 10121U 77059B   21101.96860209  .00000068  00000-0  32308-4 0  9992
2 10121  74.0456  93.2920 0017662 101.9625 258.3509 14.35980457289810
Epoch (UTC): 11 April 2021 23:14:47
Eccentricity: 0.0017662
inclination: 74.0456°
perigee height: 759 km
apogee height: 784 km
right ascension of ascending node: 93.2920°
argument of perigee: 101.9625°
revolutions per day: 14.35980457
mean anomaly at epoch: 258.3509°
orbit number at epoch: 28981

The dashed part of the orbit path shows where the satellite is in the earth's shadow,  

DLR